TimeEDT,TemperatureF,Dew PointF,Humidity,Sea Level PressureIn,VisibilityMPH,Wind Direction,Wind SpeedMPH,Gust SpeedMPH,PrecipitationIn,Events,Conditions,WindDirDegrees,DateUTC
12:15 AM,51.8,51.8,100,30.06,10.0,WNW,8.1,-,N/A,Rain,Light Rain,300,2013-04-20 04:15:00
12:35 AM,51.8,51.8,100,30.06,10.0,WNW,5.8,-,N/A,,Scattered Clouds,290,2013-04-20 04:35:00
12:55 AM,51.8,51.8,100,30.08,10.0,WNW,8.1,-,N/A,,Clear,300,2013-04-20 04:55:00
1:15 AM,51.8,51.8,100,30.07,10.0,NW,9.2,-,N/A,,Clear,310,2013-04-20 05:15:00
1:35 AM,50.0,50.0,100,30.08,10.0,WNW,6.9,-,N/A,,Clear,300,2013-04-20 05:35:00
1:55 AM,50.0,50.0,100,30.08,10.0,WNW,5.8,-,N/A,,Clear,300,2013-04-20 05:55:00
2:15 AM,50.0,50.0,100,30.07,10.0,NW,9.2,-,N/A,,Clear,310,2013-04-20 06:15:00
2:35 AM,50.0,50.0,100,30.07,10.0,NW,6.9,-,N/A,,Clear,310,2013-04-20 06:35:00
2:55 AM,50.0,50.0,100,30.07,10.0,WNW,6.9,-,N/A,,Clear,290,2013-04-20 06:55:00
3:15 AM,48.2,48.2,100,30.07,10.0,WNW,5.8,-,N/A,,Clear,290,2013-04-20 07:15:00
3:35 AM,48.2,48.2,100,30.07,10.0,WNW,6.9,-,N/A,,Clear,290,2013-04-20 07:35:00
3:55 AM,48.2,48.2,100,30.07,10.0,NW,5.8,-,N/A,,Clear,310,2013-04-20 07:55:00
4:15 AM,48.2,46.4,93,30.08,10.0,NW,5.8,-,N/A,,Clear,310,2013-04-20 08:15:00
4:35 AM,46.4,46.4,100,30.09,10.0,NW,9.2,-,N/A,,Clear,310,2013-04-20 08:35:00
4:55 AM,46.4,46.4,100,30.10,10.0,NW,10.4,-,N/A,,Clear,320,2013-04-20 08:55:00
5:15 AM,46.4,44.6,93,30.10,10.0,NW,10.4,-,N/A,,Clear,310,2013-04-20 09:15:00
5:35 AM,46.4,44.6,93,30.12,10.0,NW,8.1,-,N/A,,Clear,310,2013-04-20 09:35:00
5:55 AM,44.6,44.6,100,30.12,10.0,NW,6.9,-,N/A,,Clear,320,2013-04-20 09:55:00
6:15 AM,44.6,44.6,100,30.12,10.0,NW,8.1,-,N/A,,Clear,320,2013-04-20 10:15:00
6:35 AM,44.6,44.6,100,30.13,10.0,NW,5.8,-,N/A,,Clear,320,2013-04-20 10:35:00
6:55 AM,42.8,42.8,100,30.14,10.0,NW,6.9,-,N/A,,Clear,320,2013-04-20 10:55:00
7:15 AM,42.8,42.8,100,30.14,10.0,NW,5.8,-,N/A,,Clear,310,2013-04-20 11:15:00
7:35 AM,42.8,42.8,100,30.16,10.0,NW,5.8,-,N/A,,Clear,310,2013-04-20 11:35:00
7:55 AM,42.8,42.8,100,30.16,10.0,NNW,6.9,-,N/A,,Clear,330,2013-04-20 11:55:00
8:15 AM,42.8,42.8,100,30.17,10.0,NNW,5.8,-,N/A,,Clear,330,2013-04-20 12:15:00
8:35 AM,44.6,44.6,100,30.17,10.0,NNW,5.8,-,N/A,,Clear,340,2013-04-20 12:35:00
8:55 AM,46.4,42.8,87,30.18,10.0,North,6.9,-,N/A,,Clear,350,2013-04-20 12:55:00
9:15 AM,46.4,42.8,87,30.19,10.0,North,8.1,-,N/A,,Clear,350,2013-04-20 13:15:00
9:35 AM,48.2,42.8,82,30.19,10.0,North,8.1,-,N/A,,Clear,350,2013-04-20 13:35:00
9:55 AM,50.0,37.4,62,30.19,10.0,North,8.1,-,N/A,,Clear,350,2013-04-20 13:55:00
10:15 AM,51.8,35.6,54,30.20,10.0,North,8.1,-,N/A,,Clear,350,2013-04-20 14:15:00
10:35 AM,53.6,37.4,54,30.21,10.0,North,5.8,-,N/A,,Clear,360,2013-04-20 14:35:00
10:55 AM,53.6,35.6,51,30.21,10.0,NNE,5.8,-,N/A,,Clear,20,2013-04-20 14:55:00
11:15 AM,55.4,35.6,47,30.21,10.0,NE,9.2,-,N/A,,Clear,50,2013-04-20 15:15:00
11:35 AM,55.4,35.6,47,30.21,10.0,ENE,9.2,-,N/A,,Clear,70,2013-04-20 15:35:00
11:55 AM,59.0,39.2,48,30.22,10.0,NE,4.6,-,N/A,,Clear,50,2013-04-20 15:55:00
12:15 PM,59.0,37.4,45,30.21,10.0,Calm,Calm,-,N/A,,Clear,0,2013-04-20 16:15:00
12:35 PM,59.0,39.2,48,30.21,10.0,ENE,6.9,-,N/A,,Clear,70,2013-04-20 16:35:00
12:55 PM,60.8,39.2,45,30.20,10.0,NNW,5.8,-,N/A,,Clear,330,2013-04-20 16:55:00
1:15 PM,60.8,37.4,42,30.20,10.0,North,6.9,-,N/A,,Clear,350,2013-04-20 17:15:00
1:35 PM,60.8,35.6,39,30.19,10.0,NNW,4.6,-,N/A,,Clear,340,2013-04-20 17:35:00
1:55 PM,62.6,33.8,34,30.19,10.0,North,5.8,-,N/A,,Clear,10,2013-04-20 17:55:00
2:15 PM,62.6,35.6,37,30.18,10.0,NE,3.5,-,N/A,,Clear,50,2013-04-20 18:15:00
2:35 PM,64.4,35.6,34,30.18,10.0,Calm,Calm,-,N/A,,Clear,0,2013-04-20 18:35:00
2:55 PM,64.4,37.4,37,30.17,10.0,Calm,Calm,-,N/A,,Clear,0,2013-04-20 18:55:00
3:15 PM,64.4,33.8,32,30.17,10.0,NW,5.8,-,N/A,,Clear,310,2013-04-20 19:15:00
3:35 PM,64.4,33.8,32,30.16,10.0,Calm,Calm,-,N/A,,Clear,0,2013-04-20 19:35:00
3:55 PM,66.2,33.8,30,30.16,10.0,NNW,3.5,-,N/A,,Clear,340,2013-04-20 19:55:00
4:15 PM,68.0,30.2,24,30.15,10.0,North,5.8,-,N/A,,Clear,350,2013-04-20 20:15:00
4:35 PM,68.0,32.0,26,30.15,10.0,NE,6.9,-,N/A,,Clear,50,2013-04-20 20:35:00
4:55 PM,68.0,30.2,24,30.15,10.0,North,5.8,-,N/A,,Clear,350,2013-04-20 20:55:00
5:15 PM,68.0,30.2,24,30.15,10.0,WNW,3.5,-,N/A,,Clear,300,2013-04-20 21:15:00
5:35 PM,68.0,32.0,26,30.15,10.0,North,6.9,-,N/A,,Clear,360,2013-04-20 21:35:00
5:55 PM,68.0,30.2,24,30.15,10.0,NNW,5.8,-,N/A,,Clear,340,2013-04-20 21:55:00
6:15 PM,68.0,30.2,24,30.15,10.0,North,4.6,-,N/A,,Clear,360,2013-04-20 22:15:00
6:35 PM,68.0,32.0,26,30.15,10.0,NNW,3.5,-,N/A,,Clear,340,2013-04-20 22:35:00
6:55 PM,66.2,32.0,28,30.16,10.0,North,5.8,-,N/A,,Clear,350,2013-04-20 22:55:00
7:15 PM,64.4,32.0,30,30.16,10.0,NNW,4.6,-,N/A,,Clear,340,2013-04-20 23:15:00
7:35 PM,64.4,35.6,34,30.17,10.0,NNW,3.5,-,N/A,,Clear,340,2013-04-20 23:35:00
7:55 PM,62.6,39.2,42,30.17,10.0,Calm,Calm,-,N/A,,Clear,0,2013-04-20 23:55:00
8:15 PM,59.0,44.6,59,30.18,10.0,Calm,Calm,-,N/A,,Clear,0,2013-04-21 00:15:00
8:35 PM,55.4,46.4,72,30.19,10.0,Calm,Calm,-,N/A,,Clear,0,2013-04-21 00:35:00
8:55 PM,53.6,53.6,100,30.20,10.0,Calm,Calm,-,N/A,,Clear,0,2013-04-21 00:55:00
9:15 PM,51.8,51.8,100,30.21,10.0,Calm,Calm,-,N/A,,Clear,0,2013-04-21 01:15:00
9:35 PM,51.8,51.8,100,30.22,10.0,Calm,Calm,-,N/A,,Clear,0,2013-04-21 01:35:00
9:55 PM,51.8,51.8,100,30.22,10.0,Calm,Calm,-,N/A,,Clear,0,2013-04-21 01:55:00
10:15 PM,50.0,50.0,100,30.23,10.0,Calm,Calm,-,N/A,,Clear,0,2013-04-21 02:15:00
10:35 PM,51.8,51.8,100,30.23,10.0,Calm,Calm,-,N/A,,Clear,0,2013-04-21 02:35:00
10:55 PM,50.0,50.0,100,30.24,10.0,Calm,Calm,-,N/A,,Clear,0,2013-04-21 02:55:00
11:15 PM,48.2,48.2,100,30.24,10.0,Calm,Calm,-,N/A,,Clear,0,2013-04-21 03:15:00
11:35 PM,48.2,48.2,100,30.24,10.0,Calm,Calm,-,N/A,,Clear,0,2013-04-21 03:35:00
11:55 PM,46.4,46.4,100,30.24,3.0,Calm,Calm,-,N/A,,Clear,0,2013-04-21 03:55:00